Weather observations for the past three days for
Anniston Metro Airport
Imperial (Metric)
Date Time (cdt) Wind (mph) Vis. (mi.) Weather Sky Cond. Temperature (ºF) Relative Humidity Wind Chill (°F) Heat Index (°F) Pressure Precipitation (in)
Air Dwpt 6 hour altimeter (in) sea level (mb) 1 hr 3 hr 6 hr
Max. Min.
23 00:53 Calm 10.00 Fair CLR 72 70 91 72 94% 30.01 1015.1
22 23:53 Calm 10.00 Fair CLR 72 69.1 91% 30.02 1015.4
22 22:53 Calm 10.00 Fair CLR 75 69.1 82% 75 30.02 1015.4
22 21:53 Calm 10.00 Fair CLR 75.9 66.9 74% 77 30.02 1015.4
22 20:53 Calm 10.00 Fair CLR 78.1 66.9 69% 80 30 1014.9
22 19:53 Calm 10.00 Fair CLR 82 68 63% 85 29.99 1014.5
22 18:53 S 3 10.00 Fair CLR 91 66 95 91 44% 94 29.99 1014.3
22 17:53 S 3 10.00 Fair CLR 93 61 34% 93 29.99 1014.4
22 16:53 SE 3 10.00 Fair CLR 93.9 59 31% 93 30 1014.6
22 15:53 Vrbl 3 10.00 Fair CLR 93.9 63 36% 95 30.01 1015.2
22 14:53 Vrbl 3 10.00 Fair CLR 93 62.1 36% 94 30.03 1015.9
22 13:53 SE 6 10.00 Fair CLR 91 64 41% 93 30.07 1017.0
22 12:53 Calm 10.00 Fair CLR 91 66 91 72 44% 94 30.09 1017.9
22 11:53 S 5 10.00 Fair CLR 89.1 66 47% 92 30.12 1018.8
22 10:53 W 5 10.00 Fair CLR 88 64.9 46% 90 30.13 1019.3
22 09:53 Calm 10.00 Fair CLR 84.9 68 57% 88 30.14 1019.5
22 08:53 Calm 10.00 Fair CLR 81 66 61% 83 30.14 1019.7
22 07:53 E 3 10.00 A Few Clouds FEW060 75.9 66.9 74% 77 30.15 1020.0
22 06:53 E 3 10.00 Fair CLR 72 66 73 69.1 82% 30.15 1019.8
22 05:53 Calm 10.00 Fair CLR 71.1 64.9 81% 30.14 1019.4
22 04:53 NE 3 10.00 Fair CLR 70 64.9 84% 30.13 1019.2
22 03:53 NE 3 10.00 Fair CLR 70 66 87% 30.13 1019.2
22 02:53 Calm 10.00 Fair CLR 71.1 66.9 87% 30.13 1019.1
22 01:53 E 3 10.00 Fair CLR 72 66.9 84% 30.13 1019.1
22 00:53 E 3 10.00 Fair CLR 73 68 90 73 84% 30.14 1019.4
21 23:53 Calm 10.00 Fair CLR 73 68 84% 30.14 1019.6
21 22:53 E 3 10.00 Fair CLR 73.9 69.1 85% 30.14 1019.6
21 21:53 Calm 10.00 Fair CLR 73.9 68 82% 30.13 1019.3
21 20:53 Calm 10.00 Fair CLR 77 68 74% 79 30.12 1019.0
21 19:53 Calm 10.00 Fair CLR 82 66 58% 84 30.11 1018.5
21 18:53 Vrbl 5 10.00 Fair CLR 90 62.1 93 89.1 39% 90 30.11 1018.3
21 17:53 E 6 10.00 Fair CLR 91.9 63 38% 93 30.11 1018.7
21 16:53 E 7 10.00 Fair CLR 91.9 62.1 37% 93 30.12 1019.0
21 15:53 E 10 10.00 Fair CLR 91.9 63 38% 93 30.14 1019.6
21 14:53 E 9 10.00 Partly Cloudy FEW065 SCT080 91 63 39% 92 30.16 1020.2
21 13:53 Vrbl 3 10.00 A Few Clouds FEW065 90 63 41% 91 30.18 1020.9
21 12:53 Vrbl 3 10.00 Fair CLR 90 64.9 90 71.1 44% 92 30.2 1021.6
21 11:53 NE 9 10.00 Fair CLR 88 63 43% 89 30.23 1022.5
21 10:53 Vrbl 5 10.00 Fair CLR 86 64 48% 87 30.24 1023.1
21 09:53 E 3 10.00 Fair CLR 82.9 66 57% 85 30.26 1023.6
21 08:53 Calm 10.00 Fair CLR 79 64.9 62% 81 30.26 1023.9
21 07:53 E 5 10.00 Fair CLR 75 64.9 71% 77 30.26 1023.7
21 06:53 NE 3 10.00 Fair CLR 71.1 64 72 66.9 79% 30.26 1023.5
21 05:53 E 3 10.00 Fair CLR 66.9 64.9 93% 30.25 1023.3
21 04:53 E 3 10.00 Fair CLR 66.9 64.9 93% 30.24 1022.9
21 03:53 Calm 10.00 Fair CLR 68 64.9 90% 30.22 1022.5
21 02:53 Calm 10.00 Fair CLR 70 66 87% 30.22 1022.3
21 01:53 NE 6 10.00 Fair CLR 71.1 66 84% 30.23 1022.7
21 00:53 NE 5 10.00 Fair CLR 72 66 88 71.1 82% 30.23 1022.8
20 23:53 NE 3 10.00 Fair CLR 73 66.9 81% 30.23 1022.8
20 22:53 Calm 10.00 Fair CLR 73 66 79% 30.23 0.0
20 21:53 NE 3 10.00 Fair CLR 73.9 66 76% 30.23 1022.6
20 20:53 Calm 10.00 Fair CLR 77 66 69% 79 30.21 1022.1
20 19:53 Calm 10.00 Fair CLR 84.9 63 48% 86 30.2 1021.7
20 18:53 NE 6 10.00 Fair CLR 88 62.1 91 87.1 42% 88 30.2 1021.7
20 17:53 NE 7 10.00 A Few Clouds FEW070 90 62.1 39% 90 30.2 1021.8
20 16:53 E 7 10.00 Fair CLR 90 61 38% 90 30.21 1022.1
20 15:53 E 7 10.00 A Few Clouds FEW070 91 62.1 38% 92 30.22 1022.3
20 14:53 Calm 10.00 A Few Clouds FEW060 89.1 63 42% 90 30.24 1022.9
20 13:53 E 7 10.00 Partly Cloudy SCT060 89.1 64 43% 90 30.25 1023.5
20 12:53 E 9 10.00 A Few Clouds FEW055 88 64.9 88 71.1 46% 90 30.27 1024.2
20 11:53 E 9 G 22 10.00 A Few Clouds FEW049 86 64.9 49% 88 30.29 1024.6
20 10:53 E 12 G 21 0.00 A Few Clouds FEW046 0 0 0% 30.31 0.0
20 09:53 E 9 G 16 10.00 Fair CLR 82.9 66 57% 85 30.31 1025.4
20 08:53 E 10 10.00 Fair CLR 80.1 64.9 60% 82 30.3 1025.3
20 07:53 NE 7 10.00 Fair CLR 75.9 66 72% 77 30.3 1025.0
20 06:53 Calm 10.00 Fair CLR 71.1 64.9 71.1 64.9 81% 30.28 1024.6
20 05:53 Calm 7.00 Fair CLR 66 64 93% 30.28 1024.4
20 04:53 Calm 10.00 Fair CLR 66.9 64 91% 30.27 1024.0
20 03:53 Calm 10.00 A Few Clouds FEW060 70 64 82% 30.25 1023.3
20 02:53 Calm 10.00 Partly Cloudy SCT065 69.1 64.9 87% 30.24 1023.1
20 01:53 Calm 10.00 Partly Cloudy SCT055 68 64.9 90% 30.23 1022.9
Date Time (cdt) Wind (mph) Vis. (mi.) Weather Sky Cond. Air Dwpt Max. Min. Relative Humidity Wind Chill (°F) Heat Index (°F) altimeter (in) sea level (mb) 1 hr 3 hr 6 hr
6 hour
Temperature (ºF) Pressure Precipitation (in)